This is the latest recevied weather packets stored in our database for station/object KD9NSC. If no packets are shown the sender has not sent any weather packets the latest 10 day(s).
| Time | Temp. | Humidity | Pressure | Rain* | Wind** | Luminosity | Snow |
|---|---|---|---|---|---|---|---|
| 1777481273 | 10.56° C | 87% | 1014.9 hPa | 0 mm | - | 145 W/m² | - |
| 1777480970 | 10° C | 87% | 1015 hPa | 0 mm | - | 74 W/m² | - |
| 1777480666 | 10° C | 87% | 1014.9 hPa | 0 mm | - | 71 W/m² | - |
| 1777480363 | 10.56° C | 87% | 1015 hPa | 0 mm | - | 59 W/m² | - |
| 1777480059 | 10.56° C | 86% | 1015.4 hPa | 0 mm | - | 61 W/m² | - |
| 1777479755 | 10.56° C | 86% | 1015 hPa | 0 mm | - | 47 W/m² | - |
| 1777479454 | 11.11° C | 85% | 1015.1 hPa | 0 mm | - | 58 W/m² | - |
| 1777479149 | 11.11° C | 84% | 1015 hPa | 0 mm | - | 83 W/m² | - |
| 1777478847 | 11.67° C | 83% | 1015.1 hPa | 0 mm | - | 92 W/m² | - |
| 1777478542 | 11.67° C | 84% | 1015.3 hPa | 0 mm | - | 122 W/m² | - |
| 1777478240 | 12.22° C | 83% | 1015.3 hPa | 0 mm | - | 108 W/m² | - |
| 1777477936 | 12.22° C | 82% | 1015.2 hPa | 0 mm | - | 158 W/m² | - |
| 1777477632 | 12.22° C | 81% | 1015.1 hPa | 0 mm | - | 281 W/m² | - |
| 1777477329 | 12.78° C | 85% | 1015.3 hPa | 0 mm | - | 150 W/m² | - |
| 1777477025 | 12.78° C | 83% | 1015.2 hPa | 0 mm | - | 199 W/m² | - |
| 1777476723 | 12.78° C | 80% | 1015 hPa | 0 mm | - | 435 W/m² | - |
| 1777476419 | 12.78° C | 80% | 1015 hPa | 0 mm | - | 185 W/m² | - |
| 1777476115 | 12.78° C | 83% | 1014.9 hPa | 0 mm | - | 192 W/m² | - |
| 1777475805 | 12.78° C | 81% | 1014.7 hPa | 0 mm | - | 102 W/m² | - |
| 1777475502 | 12.78° C | 81% | 1014.8 hPa | 0 mm | - | 219 W/m² | - |
| 1777475198 | 13.33° C | 83% | 1014.7 hPa | 0 mm | - | 190 W/m² | - |
| 1777474894 | 12.78° C | 82% | 1014.7 hPa | 0 mm | - | 261 W/m² | - |
| 1777474589 | 13.33° C | 80% | 1014.5 hPa | 0 mm | - | 194 W/m² | - |
| 1777474287 | 12.78° C | 84% | 1014.7 hPa | 0 mm | - | 365 W/m² | - |
| 1777473983 | 12.78° C | 83% | 1014.9 hPa | 0 mm | - | 232 W/m² | - |
* Rain latest hour (hover to see other rain measurements)
** Current wind speed in m/s (hover to see current wind gust speed)